Weather History for Ouarzazate, Morocco

Change the Weather History Date:

Wednesday, October 24, 2012

  Actual Average Record
Temperature  
Mean Temperature 70 °F -  
Max Temperature 80 °F 71 °F - ()
Min Temperature 60 °F 46 °F - ()
Cooling Degree Days 5    
Growing Degree Days 20 (Base 50)    
Moisture  
Dew Point 48 °F    
Average Humidity 43    
Maximum Humidity 60    
Minimum Humidity 20    
Precipitation  
Precipitation 0.00 in 0.02 in - ()
Sea Level Pressure  
Sea Level Pressure 30.12 in    
Wind  
Wind Speed 5 mph ()    
Max Wind Speed 26 mph    
Max Gust Speed 29 mph    
Visibility 7.8 miles    
Events Thunderstorm    
T = Trace of Precipitation, MM = Missing Value Source: Averaged Metar Reports

Daily Weather History Graph

Daily Weather History Graph

Search for Another Location

Airport:

Trip Planner

Search our weather history database for the weather conditions in past years. The results will help you decide how hot, cold, wet, or windy it might be!

Date:

Astronomy

Oct. 24, 2012 Rise Set
Actual Time 6:36 AM WET 5:46 PM WET
Civil Twilight 6:12 AM WET 6:10 PM WET
Nautical Twilight 5:43 AM WET 6:39 PM WET
Astronomical Twilight 5:15 AM WET 7:07 PM WET
Moon 2:37 PM WET (10/24) 1:37 AM WET (10/24)
Length of Visible Light 11h 58m
Length of Day
11h 09m
Waxing Gibbous, 74% of the Moon is Illuminated
Oct 24
Waxing Gibbous
Oct 29
Full
Nov 7
Last Quarter
Nov 13
New
Nov 20
First Quarter

Hourly Weather History & Observations

Time (WET) Temp. Dew Point Humidity Pressure Visibility Wind Dir Wind Speed Gust Speed Precip Events Conditions
12:00 AM 68 °F 47 °F 35%  in 12 mi WNW 4.6 mph - -   Scattered Clouds
12:00 AM 68.0 °F 46.4 °F 46% 30.18 in 6.2 mi WNW 4.6 mph - N/A   Partly Cloudy
1:00 AM 68.0 °F 46.4 °F 46% 30.15 in 6.2 mi Calm Calm - N/A   Partly Cloudy
2:00 AM 68.0 °F 46.4 °F 46% 30.15 in - WNW 2.3 mph - N/A   Clear
3:00 AM 66.2 °F 46.4 °F 49% 30.15 in - East 2.3 mph - N/A   Clear
5:00 AM 62.6 °F 48.2 °F 59% 30.15 in - WNW 3.5 mph - N/A   Clear
6:00 AM 61 °F 46 °F 48%  in 12 mi NW 1.2 mph - -   Scattered Clouds
6:00 AM 60.8 °F 46.4 °F 59% 30.15 in - NW 1.2 mph - N/A   Clear
7:00 AM 62.6 °F 48.2 °F 59% 30.15 in 6.2 mi Calm Calm - N/A   Scattered Clouds
8:00 AM 62.6 °F 48.2 °F 59% 30.18 in 6.2 mi WNW 3.5 mph - N/A   Scattered Clouds
9:00 AM 67 °F 47 °F 37%  in 12 mi Calm Calm - -   Partly Cloudy
9:00 AM 68.0 °F 46.4 °F 46% 30.18 in 6.2 mi Calm Calm - N/A   Scattered Clouds
10:00 AM 71.6 °F 46.4 °F 41% 30.18 in 6.2 mi Calm Calm - N/A   Scattered Clouds
11:00 AM 75.2 °F 48.2 °F 38% 30.18 in 6.2 mi Variable 1.2 mph - N/A   Scattered Clouds
12:00 PM 75 °F 49 °F 29%  in 12 mi SSW 1.2 mph - -   Mostly Cloudy
12:00 PM 75.2 °F 50.0 °F 41% 30.15 in 6.2 mi Variable 1.2 mph - N/A   Partly Cloudy
1:00 PM 73.4 °F 55.4 °F 53% 30.12 in 6.2 mi SSE 5.8 mph - N/A Thunderstorm Thunderstorm
2:00 PM 78.8 °F 46.4 °F 32% 30.06 in 6.2 mi West 6.9 mph 25.3 mph N/A Thunderstorm Thunderstorm
3:00 PM 80 °F 46 °F 20%  in 12 mi West 26.5 mph - - Thunderstorm Thunderstorm
3:00 PM 80.6 °F 46.4 °F 30% 30.06 in 6.2 mi West 26.5 mph - N/A Thunderstorm Thunderstorm
4:00 PM 78.8 °F 46.4 °F 32% 30.06 in 6.2 mi West 19.6 mph - N/A Thunderstorm Thunderstorm
5:00 PM 77.0 °F 46.4 °F 34% 30.06 in 6.2 mi WSW 12.7 mph - N/A Thunderstorm Thunderstorm
6:00 PM 74 °F 47 °F 27%  in 12 mi WSW 17.3 mph - - Thunderstorm Thunderstorm
6:00 PM 75.2 °F 46.4 °F 36% 30.06 in 6.2 mi WSW 17.3 mph 28.8 mph N/A Thunderstorm Thunderstorm
7:00 PM 75.2 °F 48.2 °F 38% 30.09 in 6.2 mi SW 12.7 mph - N/A Thunderstorm Thunderstorm
8:00 PM 71.6 °F 48.2 °F 43% 30.09 in 6.2 mi SW 15.0 mph - N/A   Partly Cloudy
9:00 PM 71 °F 49 °F 34%  in 12 mi SW 8.1 mph - -  
9:00 PM 71.6 °F 48.2 °F 43% 30.09 in 6.2 mi SW 8.1 mph - N/A   Scattered Clouds
10:00 PM 68.0 °F 53.6 °F 60% 30.09 in 6.2 mi Variable 3.5 mph - N/A   Scattered Clouds
11:00 PM 68.0 °F 53.6 °F 60% 30.09 in 6.2 mi Variable 2.3 mph - N/A   Partly Cloudy